Pine Bluffs, WY

7:41 PM MST on February 27, 2017 (GMT -0700)
Pine Bluffs Muni, Pine Bluffs

Weather History for K82V - March, 2014

Change the Weather History Date:

Thursday, March 13, 2014

  Actual Average (KCYS) Record (KCYS)
Temperature  
Mean Temperature 42 °F -  
Max Temperature 59 °F 49 °F 68 °F (2003)
Min Temperature 24 °F 23 °F -17 °F (1880)
Degree Days  
Heating Degree Days 24    
Moisture  
Dew Point 21 °F    
Average Humidity 54    
Maximum Humidity 86    
Minimum Humidity 16    
Precipitation  
Precipitation 0.00 in - - ()
Sea Level Pressure  
Sea Level Pressure 29.95 in    
Wind  
Wind Speed 7 mph (WSW)    
Max Wind Speed 26 mph    
Max Gust Speed 33 mph    
Visibility 10 miles    
Events      
Averages and records for this station are not official NWS values.
T = Trace of Precipitation, MM = Missing Value Source: NWS Daily Summary

Daily Weather History Graph

Daily Weather History Graph

Search for Another Location

Airport or City:

Trip Planner

Search our weather history database for the weather conditions in past years. The results will help you decide how hot, cold, wet, or windy it might be!

Date:

Astronomy

Mar. 13, 2014 Rise Set
Actual Time 7:11 AM MDT 7:01 PM MDT
Civil Twilight 6:44 AM MDT 7:28 PM MDT
Nautical Twilight 6:12 AM MDT 8:00 PM MDT
Astronomical Twilight 5:39 AM MDT 8:32 PM MDT
Moon 4:28 PM MDT (3/13) 5:20 AM MDT (3/13)
Length of Visible Light 12h 44m
Length of Day
11h 49m
Waxing Gibbous, 92% of the Moon is Illuminated
Mar 13
Waxing Gibbous
Mar 16
Full
Mar 23
Last Quarter
Mar 30
New
Apr 7
First Quarter

Hourly Weather History & Observations

Time (MDT) Temp. Windchill Dew Point Humidity Pressure Visibility Wind Dir Wind Speed Gust Speed Precip Events Conditions
12:15 AM 30.2 °F 25.4 °F 23.0 °F 75% 30.14 in 10.0 mi SW 4.6 mph - N/A   Clear
12:35 AM 28.4 °F 24.6 °F 24.8 °F 86% 30.13 in 10.0 mi South 3.5 mph - N/A   Clear
12:55 AM 30.2 °F - 23.0 °F 75% 30.13 in 10.0 mi Calm Calm - N/A   Clear
1:15 AM 28.4 °F - 23.0 °F 80% 30.12 in 10.0 mi Calm Calm - N/A   Clear
1:35 AM 26.6 °F - 23.0 °F 86% 30.12 in 10.0 mi Calm Calm - N/A   Clear
1:55 AM 26.6 °F 22.6 °F 23.0 °F 86% 30.12 in 10.0 mi SSW 3.5 mph - N/A   Clear
2:15 AM 28.4 °F 24.6 °F 23.0 °F 80% 30.11 in 10.0 mi SW 3.5 mph - N/A   Clear
2:35 AM 26.6 °F 21.2 °F 21.2 °F 80% 30.11 in 10.0 mi SSE 4.6 mph - N/A   Clear
2:55 AM 28.4 °F 23.3 °F 23.0 °F 80% 30.09 in 10.0 mi South 4.6 mph - N/A   Clear
3:15 AM 26.6 °F 17.5 °F 23.0 °F 86% 30.08 in 10.0 mi South 9.2 mph - N/A   Clear
3:35 AM 26.6 °F 16.8 °F 23.0 °F 86% 30.07 in 10.0 mi SSW 10.4 mph - N/A   Clear
3:55 AM 26.6 °F 20.0 °F 23.0 °F 86% 30.07 in 10.0 mi South 5.8 mph - N/A   Clear
4:15 AM 26.6 °F 20.0 °F 23.0 °F 86% 30.07 in 10.0 mi South 5.8 mph - N/A   Clear
4:35 AM 26.6 °F 20.0 °F 23.0 °F 86% 30.06 in 10.0 mi SSW 5.8 mph - N/A   Clear
4:55 AM 24.8 °F - 21.2 °F 86% 30.05 in 10.0 mi Calm Calm - N/A   Clear
5:15 AM 26.6 °F 20.0 °F 21.2 °F 80% 30.05 in 10.0 mi SSW 5.8 mph - N/A   Clear
5:35 AM 26.6 °F 22.6 °F 21.2 °F 80% 30.05 in 10.0 mi South 3.5 mph - N/A   Clear
5:55 AM 24.8 °F 20.5 °F 21.2 °F 86% 30.04 in 10.0 mi SSW 3.5 mph - N/A   Clear
6:15 AM 26.6 °F 21.2 °F 21.2 °F 80% 30.03 in 10.0 mi SW 4.6 mph - N/A   Clear
6:35 AM 26.6 °F - 21.2 °F 80% 30.02 in 10.0 mi Calm Calm - N/A   Clear
6:55 AM 26.6 °F - 21.2 °F 80% 30.02 in 10.0 mi Calm Calm - N/A   Clear
7:15 AM 26.6 °F 17.5 °F 21.2 °F 80% 30.02 in 10.0 mi SSW 9.2 mph - N/A   Clear
7:35 AM 26.6 °F 19.1 °F 23.0 °F 86% 30.01 in 10.0 mi SSW 6.9 mph - N/A   Clear
7:55 AM 28.4 °F 23.3 °F 23.0 °F 80% 30.01 in 10.0 mi SSW 4.6 mph - N/A   Clear
8:15 AM 30.2 °F - 24.8 °F 80% 30.00 in 10.0 mi Calm Calm - N/A   Clear
8:35 AM 32.0 °F - 26.6 °F 80% 30.00 in 10.0 mi Calm Calm - N/A   Clear
8:55 AM 35.6 °F 29.2 °F 26.6 °F 70% 30.00 in 10.0 mi SSW 8.1 mph - N/A   Clear
9:15 AM 37.4 °F 33.8 °F 28.4 °F 70% 30.00 in 10.0 mi SSW 4.6 mph - N/A   Clear
9:35 AM 41.0 °F 38.0 °F 28.4 °F 61% 29.99 in 10.0 mi SSW 4.6 mph - N/A   Clear
9:55 AM 42.8 °F 38.6 °F 26.6 °F 53% 29.98 in 10.0 mi South 6.9 mph - N/A   Clear
10:15 AM 44.6 °F 40.2 °F 26.6 °F 49% 29.97 in 10.0 mi South 8.1 mph - N/A   Clear
10:35 AM 46.4 °F 41.9 °F 26.6 °F 46% 29.96 in 10.0 mi South 9.2 mph - N/A   Clear
10:55 AM 46.4 °F 41.9 °F 26.6 °F 46% 29.95 in 10.0 mi South 9.2 mph - N/A   Clear
11:15 AM 50.0 °F - 23.0 °F 35% 29.94 in 10.0 mi South 9.2 mph - N/A   Clear
11:35 AM 51.8 °F - 21.2 °F 30% 29.93 in 10.0 mi South 10.4 mph - N/A   Clear
11:55 AM 51.8 °F - 19.4 °F 28% 29.92 in 10.0 mi SSW 12.7 mph - N/A   Clear
12:15 PM 53.6 °F - 14.0 °F 21% 29.91 in 10.0 mi SSW 11.5 mph 18.4 mph N/A   Clear
12:35 PM 53.6 °F - 19.4 °F 26% 29.90 in 10.0 mi SSW 11.5 mph - N/A   Clear
12:55 PM 53.6 °F - 17.6 °F 24% 29.89 in 10.0 mi SSW 10.4 mph 17.3 mph N/A   Clear
1:15 PM 55.4 °F - 17.6 °F 23% 29.87 in 10.0 mi SSW 6.9 mph - N/A   Clear
1:35 PM 55.4 °F - 17.6 °F 23% 29.86 in 10.0 mi SSW 9.2 mph 16.1 mph N/A   Clear
1:55 PM 55.4 °F - 17.6 °F 23% 29.84 in 10.0 mi WSW 12.7 mph 18.4 mph N/A   Clear
2:15 PM 57.2 °F - 17.6 °F 21% 29.83 in 10.0 mi WSW 10.4 mph - N/A   Clear
2:35 PM 59.0 °F - 15.8 °F 19% 29.82 in 10.0 mi SW 10.4 mph 16.1 mph N/A   Clear
2:55 PM 59.0 °F - 17.6 °F 20% 29.81 in 10.0 mi WSW 13.8 mph 23.0 mph N/A   Clear
3:15 PM 59.0 °F - 12.2 °F 16% 29.80 in 10.0 mi West 18.4 mph 27.6 mph N/A   Clear
3:35 PM 59.0 °F - 12.2 °F 16% 29.80 in 10.0 mi West 12.7 mph 26.5 mph N/A   Clear
3:55 PM 59.0 °F - 15.8 °F 19% 29.80 in 10.0 mi West 19.6 mph 26.5 mph N/A   Clear
4:15 PM 59.0 °F - 14.0 °F 17% 29.80 in 10.0 mi WNW 26.5 mph 33.4 mph N/A   Scattered Clouds
4:35 PM 57.2 °F - 12.2 °F 17% 29.80 in 10.0 mi WNW 25.3 mph 31.1 mph N/A   Mostly Cloudy
4:55 PM 55.4 °F - 14.0 °F 20% 29.80 in 10.0 mi West 18.4 mph 25.3 mph N/A   Scattered Clouds
5:15 PM 55.4 °F - 14.0 °F 20% 29.80 in 10.0 mi WNW 18.4 mph 21.9 mph N/A   Clear
5:35 PM 53.6 °F - 19.4 °F 26% 29.81 in 10.0 mi NW 21.9 mph 29.9 mph N/A   Clear
5:55 PM 51.8 °F - 19.4 °F 28% 29.82 in 10.0 mi WNW 21.9 mph 29.9 mph N/A   Clear
6:15 PM 51.8 °F - 17.6 °F 26% 29.82 in 10.0 mi WNW 19.6 mph 28.8 mph N/A   Clear
6:35 PM 48.2 °F - 19.4 °F 32% 29.82 in 10.0 mi WNW 16.1 mph - N/A   Clear
6:55 PM 46.4 °F 40.1 °F 19.4 °F 34% 29.82 in 10.0 mi WNW 15.0 mph - N/A   Clear
7:15 PM 44.6 °F 38.1 °F 19.4 °F 37% 29.82 in 10.0 mi WNW 13.8 mph - N/A   Clear
7:35 PM 42.8 °F 36.6 °F 21.2 °F 42% 29.83 in 10.0 mi WNW 11.5 mph - N/A   Clear
7:55 PM 39.2 °F 33.0 °F 23.0 °F 52% 29.84 in 10.0 mi NW 9.2 mph - N/A   Clear
8:15 PM 41.0 °F 34.7 °F 23.0 °F 49% 29.84 in 10.0 mi WNW 10.4 mph - N/A   Clear
8:35 PM 41.0 °F 36.4 °F 23.0 °F 49% 29.85 in 10.0 mi WNW 6.9 mph - N/A   Clear
8:55 PM 37.4 °F 30.3 °F 23.0 °F 56% 29.86 in 10.0 mi WNW 10.4 mph - N/A   Clear
9:15 PM 41.0 °F 33.9 °F 21.2 °F 45% 29.86 in 10.0 mi WNW 12.7 mph - N/A   Clear
9:35 PM 42.8 °F 34.3 °F 21.2 °F 42% 29.89 in 10.0 mi NW 19.6 mph 29.9 mph N/A   Clear
9:55 PM 41.0 °F 32.5 °F 23.0 °F 49% 29.91 in 10.0 mi NNW 17.3 mph 28.8 mph N/A   Clear
10:15 PM 39.2 °F 31.6 °F 23.0 °F 52% 29.92 in 10.0 mi NNW 12.7 mph - N/A   Clear
10:35 PM 35.6 °F 29.9 °F 23.0 °F 60% 29.93 in 10.0 mi NNW 6.9 mph - N/A   Clear
10:55 PM 35.6 °F 29.2 °F 24.8 °F 65% 29.94 in 10.0 mi NNW 8.1 mph - N/A   Clear
11:15 PM 33.8 °F 26.4 °F 24.8 °F 70% 29.94 in 10.0 mi NNW 9.2 mph - N/A   Clear
11:35 PM 32.0 °F 24.8 °F 26.6 °F 80% 29.95 in 10.0 mi NW 8.1 mph - N/A   Clear
11:55 PM 32.0 °F 23.6 °F 26.6 °F 80% 29.95 in 10.0 mi NW 10.4 mph - N/A   Clear